Vorticity
11 12 8 5 6 10 12 14 31 27 15 18 8 12 13 13 19 20 24 26 24 12 22 20 19 24 20 19 15 13 14 8 12 14 15 22 29 -4 18 12 24 13 12
-0 14 12 5 8 2 2 21 15 18 23 21 16 7 12 17 14 16 18 18 16 18 7 10 10 15 18 16 14 12 9 6 8 -2 24 9 3 -11 23 20 12 -7 28
4 9 9 5 8 9 10 -6 16 19 17 19 24 27 21 16 17 17 18 16 26 26 19 12 12 6 12 9 8 15 8 27 28 9 18 -7 6 12 25 5 30 23 26
20 22 18 22 16 11 28 7 18 10 18 13 19 16 19 25 23 21 21 22 16 13 17 17 16 20 15 9 11 7 6 15 18 36 37 40 11 21 37 29 -7 -1 4
13 19 10 12 10 19 29 17 18 16 16 22 34 28 17 13 8 6 13 12 17 22 18 12 9 23 4 4 18 17 8 37 -4 1 -1 -4 2 5 4 1 3 3 5
9 6 13 10 -2 -4 -7 -4 15 25 19 1 -5 -8 10 47 22 50 39 30 24 12 23 36 68 84 8 13 6 7 -1 -5 -3 -1 2 3 3 3 3 4 5 5 3
7 8 1 4 4 7 5 9 9 7 5 2 -0 3 4 1 -4 -5 -3 -4 -9 -6 -5 0 -2 -2 -2 -4 -2 3 3 4 3 2 3 3 3 3 6 6 7 6 6
6 7 6 4 4 4 3 4 4 3 3 3 3 4 5 5 4 3 4 4 4 4 4 3 4 5 4 4 4 4 4 4 4 4 5 5 5 6 7 8 8 8 9
1 2 3 4 4 3 2 0 0 1 3 3 3 3 3 3 3 3 3 4 3 3 3 3 3 4 4 5 5 7 8 9 9 9 9 8 8 7 6 6 5 6 6
5 5 5 4 4 6 6 7 7 6 5 5 6 6 6 6 5 5 5 5 5 6 7 8 8 9 8 7 5 4 5 5 6 7 8 9 9 9 7 6 5 7 6
5 6 5 6 7 7 7 7 7 6 6 6 6 7 7 7 6 6 7 7 7 6 6 6 6 7 7 8 8 9 7 6 6 6 6 5 5 4 5 5 6 5 6
16 15 18 20 17 13 12 11 8 8 8 7 6 7 6 7 7 7 7 7 8 9 8 9 8 6 5 4 4 4 4 4 4 4 5 6 6 7 9 8 8 9 11
10 11 13 11 8 6 7 11 10 11 12 12 10 9 9 10 11 11 11 8 7 5 4 4 4 4 5 6 9 10 9 7 6 7 8 10 11 13 15 17 21 21 22
2 2 2 3 3 3 4 8 12 14 13 9 7 6 5 4 4 4 4 4 5 7 7 6 7 8 2 2 6 6 5 4 5 8 11 15 18 22 19 19 19 21 22
6 6 3 1 3 4 4 6 5 7 6 7 9 10 9 9 10 9 8 9 9 10 9 9 5 5 11 5 5 4 6 10 15 17 24 26 24 30 29 24 24 16 13
6 4 5 6 4 6 3 9 9 -0 6 2 4 -5 12 23 12 6 6 6 6 6 7 9 14 4 5 7 11 13 16 21 38 43 39 29 19 18 17 13 14 17 11
4 6 2 5 6 9 3 -0 11 15 10 1 3 3 8 12 19 21 16 12 12 20 18 5 3 8 11 10 15 23 32 39 22 15 17 14 11 11 14 12 10 19 16
9 7 9 -4 3 8 15 -2 -4 5 12 4 7 6 12 11 12 11 12 15 11 2 1 9 13 12 11 20 25 32 25 12 14 13 10 8 8 10 14 21 19 12 13
6 3 1 9 42 10 12 4 -1 24 23 11 8 14 10 14 13 13 11 2 4 11 8 13 11 15 18 24 32 13 10 8 7 8 15 17 19 20 15 11 14 18 22
15 21 20 22 8 9 11 9 28 15 11 12 12 12 16 14 7 1 5 10 9 10 11 10 13 19 25 20 13 8 7 13 18 20 17 15 12 12 15 16 18 18 16
17 15 14 14 14 15 18 13 12 13 11 11 12 13 7 5 6 6 10 8 8 12 10 12 18 28 16 14 6 9 10 11 14 11 11 12 11 13 16 16 13 14 18
16 14 16 16 16 14 12 12 10 11 12 12 13 8 6 8 8 10 10 8 10 12 13 22 29 14 12 8 4 9 14 15 15 12 13 11 12 14 13 11 20 23 20
15 14 15 12 11 10 9 10 10 12 14 12 9 8 10 9 9 11 9 9 12 16 22 22 17 12 10 8 5 9 10 12 15 12 11 11 9 11 10 12 21 21 21
13 11 12 12 13 14 13 13 13 10 9 9 8 9 9 9 10 10 12 13 14 21 24 18 12 8 11 7 10 5 9 11 11 10 10 8 8 9 17 21 24 20 24
12 11 10 12 11 11 11 10 9 10 8 9 9 9 9 10 9 11 13 13 16 26 14 11 13 7 6 9 12 5 7 10 11 9 10 12 10 14 22 27 23 18 21
13 12 12 11 10 10 10 10 11 11 11 10 9 10 11 9 9 10 12 12 16 18 11 8 9 9 10 11 14 10 7 6 8 12 10 12 12 20 26 28 18 13 10
Height
5664 5657 5651 5643 5634 5625 5618 5611 5606 5603 5603 5604 5606 5609 5611 5612 5615 5616 5619 5623 5627 5632 5637 5642 5646 5649 5651 5653 5655 5655 5656 5656 5654 5653 5653 5652 5651 5651 5651 5650 5649 5647 5645
5660 5654 5649 5642 5634 5627 5620 5613 5608 5605 5602 5601 5603 5604 5606 5608 5609 5611 5612 5614 5618 5623 5629 5633 5636 5638 5640 5641 5643 5644 5643 5644 5643 5642 5643 5641 5640 5640 5640 5640 5637 5636 5633
5656 5651 5646 5641 5634 5628 5622 5617 5612 5608 5605 5604 5604 5604 5604 5604 5604 5605 5607 5609 5612 5616 5620 5623 5626 5628 5629 5631 5633 5634 5634 5634 5633 5631 5631 5632 5630 5629 5628 5629 5626 5624 5623
5653 5649 5645 5639 5633 5628 5622 5618 5614 5611 5608 5606 5604 5603 5603 5602 5602 5602 5604 5605 5607 5609 5612 5615 5618 5620 5622 5622 5624 5625 5625 5625 5622 5622 5622 5622 5621 5620 5617 5617 5617 5617 5616
5653 5648 5644 5639 5635 5629 5623 5620 5617 5615 5612 5610 5607 5603 5602 5601 5602 5602 5603 5604 5605 5606 5608 5610 5611 5612 5614 5616 5616 5617 5619 5617 5616 5616 5615 5614 5613 5612 5612 5611 5611 5609 5606
5654 5650 5646 5643 5639 5634 5629 5625 5622 5619 5617 5616 5614 5610 5608 5604 5605 5603 5602 5602 5602 5604 5605 5605 5608 5609 5611 5611 5612 5613 5613 5612 5610 5609 5607 5606 5605 5603 5602 5600 5599 5597 5596
5654 5651 5648 5644 5640 5637 5633 5630 5627 5624 5621 5618 5615 5613 5612 5611 5610 5608 5606 5606 5606 5606 5606 5606 5607 5607 5607 5607 5607 5606 5605 5603 5602 5601 5598 5596 5594 5592 5590 5588 5585 5583 5580
5654 5651 5648 5644 5641 5637 5634 5631 5628 5625 5622 5619 5617 5615 5613 5611 5609 5608 5608 5607 5606 5605 5605 5605 5604 5603 5602 5601 5600 5598 5597 5594 5592 5589 5586 5583 5580 5577 5575 5572 5570 5567 5564
5651 5648 5645 5642 5638 5635 5632 5629 5627 5624 5621 5618 5616 5614 5612 5610 5609 5607 5606 5604 5603 5602 5600 5598 5597 5596 5595 5593 5591 5589 5586 5583 5580 5576 5572 5569 5566 5562 5559 5556 5552 5549 5546
5646 5643 5640 5637 5634 5631 5628 5626 5624 5621 5618 5616 5614 5611 5609 5607 5604 5602 5600 5598 5596 5595 5593 5591 5589 5588 5585 5582 5579 5576 5572 5569 5565 5562 5558 5553 5549 5544 5539 5536 5532 5528 5523
5640 5638 5635 5632 5630 5627 5624 5621 5618 5616 5613 5610 5608 5606 5604 5601 5598 5596 5594 5592 5589 5587 5585 5582 5579 5577 5574 5571 5567 5564 5560 5555 5550 5545 5540 5534 5529 5524 5519 5514 5509 5505 5500
5636 5633 5630 5627 5623 5620 5617 5614 5611 5608 5605 5603 5600 5597 5594 5592 5589 5586 5584 5581 5579 5576 5574 5571 5568 5565 5562 5558 5554 5550 5545 5540 5534 5529 5522 5515 5509 5503 5497 5492 5485 5480 5475
5629 5626 5624 5621 5617 5614 5611 5608 5604 5601 5597 5594 5590 5587 5584 5581 5578 5576 5574 5571 5568 5566 5563 5560 5556 5552 5548 5544 5540 5534 5528 5522 5516 5509 5501 5494 5487 5481 5474 5470 5463 5459 5453
5623 5618 5615 5612 5609 5606 5603 5599 5596 5593 5591 5587 5583 5580 5576 5572 5569 5566 5563 5560 5557 5553 5550 5546 5542 5537 5532 5527 5522 5516 5509 5502 5495 5487 5479 5471 5464 5457 5451 5447 5443 5437 5433
5615 5611 5606 5603 5600 5596 5593 5590 5586 5582 5580 5575 5572 5569 5566 5563 5560 5556 5551 5548 5544 5540 5536 5531 5527 5523 5517 5511 5504 5497 5489 5481 5472 5463 5456 5448 5442 5437 5432 5428 5425 5420 5416
5603 5600 5596 5593 5590 5586 5583 5580 5576 5572 5570 5566 5561 5557 5554 5550 5546 5543 5539 5534 5529 5525 5521 5517 5512 5506 5500 5493 5485 5476 5467 5459 5450 5442 5436 5431 5427 5422 5418 5413 5409 5404 5400
5591 5588 5584 5581 5578 5575 5572 5568 5565 5561 5558 5554 5548 5544 5540 5536 5532 5528 5524 5520 5516 5512 5508 5502 5497 5490 5482 5474 5466 5457 5448 5441 5435 5430 5425 5420 5415 5410 5405 5399 5394 5389 5384
5577 5574 5571 5567 5564 5561 5558 5555 5551 5547 5543 5540 5534 5531 5527 5523 5519 5515 5511 5508 5503 5498 5493 5488 5481 5473 5466 5458 5449 5443 5437 5432 5426 5420 5414 5409 5403 5398 5392 5386 5381 5377 5372
5562 5559 5555 5552 5548 5546 5544 5540 5536 5531 5527 5525 5521 5518 5513 5510 5506 5501 5498 5494 5490 5485 5479 5472 5464 5457 5449 5443 5438 5433 5427 5421 5416 5410 5404 5398 5392 5387 5381 5376 5370 5366 5362
5546 5543 5540 5536 5533 5530 5528 5525 5522 5518 5515 5512 5508 5504 5501 5498 5492 5488 5485 5480 5475 5469 5463 5456 5450 5443 5437 5433 5428 5423 5417 5411 5405 5399 5394 5388 5383 5378 5372 5366 5361 5357 5353
5530 5527 5525 5523 5519 5516 5514 5510 5508 5505 5501 5498 5495 5491 5489 5484 5479 5475 5471 5465 5460 5455 5448 5442 5437 5433 5427 5422 5418 5413 5407 5401 5396 5390 5385 5379 5374 5369 5363 5358 5353 5349 5346
5516 5513 5511 5508 5506 5503 5501 5498 5494 5491 5488 5486 5482 5480 5477 5472 5467 5462 5458 5453 5448 5441 5435 5430 5425 5422 5417 5413 5409 5404 5398 5392 5387 5382 5377 5371 5366 5361 5356 5350 5346 5343 5339
5502 5499 5498 5495 5493 5490 5488 5484 5481 5478 5476 5473 5470 5467 5463 5459 5454 5449 5444 5439 5433 5428 5423 5418 5414 5410 5406 5403 5400 5395 5389 5384 5379 5375 5369 5363 5358 5354 5349 5343 5339 5336 5334
5487 5485 5483 5482 5480 5477 5475 5472 5468 5465 5462 5459 5455 5452 5448 5444 5440 5435 5430 5425 5420 5415 5411 5406 5403 5400 5397 5393 5390 5386 5381 5376 5371 5366 5361 5356 5350 5346 5341 5336 5333 5331 5329
5473 5472 5470 5468 5466 5464 5462 5459 5456 5453 5449 5446 5441 5438 5434 5430 5425 5421 5417 5412 5408 5403 5399 5396 5393 5390 5387 5383 5379 5376 5372 5367 5362 5358 5353 5348 5342 5338 5333 5329 5327 5327 5327
5461 5458 5457 5454 5452 5450 5449 5447 5444 5440 5437 5433 5428 5425 5420 5416 5412 5407 5402 5398 5394 5391 5388 5385 5382 5380 5376 5373 5369 5365 5361 5357 5353 5349 5345 5339 5334 5329 5325 5323 5323 5324 5325